Location: Clarks Summit,Pa.
(41.5000°N, 75.6000°W)
Time: 06:05:21
(UTC-05:00)

Envisat - Pass Details

Date: 02 December 2021
Orbit: 764 x 766 km, 98.2° (Epoch: 28 January)

Event Time Altitude Azimuth Distance (km) Brightness Sun altitude
Rises 05:07:30 0° 12° (NNE) 3,242 6.3 -22.5°
Reaches altitude 10° 05:09:49 10° 12° (NNE) 2,312 5.5 -22.0°
Maximum altitude 05:14:56 88° 283° (WNW) 772 2.9 -21.1°
Drops below altitude 10° 05:20:00 10° 196° (SSW) 2,294 5.4 -20.2°
Sets 05:22:17 0° 196° (SSW) 3,216 6.2 -19.7°
